Lid_Strength_Index
6 9 11 9 8 8 8 9 10 8 7 8 8 8 8 6 6 6 5 5 5 4 2 2 1 2 2 2 2 2 2 1 1 1 2 2 2 1 0 -0 -0 -0 -1 -1
8 11 8 6 7 8 8 9 9 8 7 8 8 9 7 6 6 5 5 5 4 4 3 2 2 2 3 3 2 2 1 1 1 1 1 1 1 0 -0 -0 -0 -0 -0 -1
10 8 7 7 8 9 9 9 9 9 8 7 8 10 9 7 6 5 5 4 4 4 4 3 3 3 3 3 2 2 1 1 1 1 0 1 0 1 1 1 0 -0 -0 -1
10 7 7 9 9 8 11 8 8 9 9 12 8 14 9 7 7 6 5 5 4 4 3 3 3 3 3 2 2 1 1 1 1 1 1 2 2 3 1 1 0 0 -0 -0
12 9 9 9 9 7 9 7 8 9 10 10 10 12 10 7 8 7 6 5 4 3 3 3 3 3 2 2 2 2 1 1 1 1 1 1 2 1 1 1 1 1 -0 -0
9 6 7 7 7 8 7 8 8 8 10 14 10 11 11 9 8 7 5 5 4 4 3 3 3 2 3 2 2 2 2 2 1 1 1 1 2 2 2 2 2 1 1 0
10 9 7 7 9 8 9 10 15 15 16 16 10 11 10 7 6 6 6 5 4 3 3 3 3 3 3 3 2 2 2 2 2 1 1 1 1 1 2 2 2 2 1 1
14 13 9 7 9 10 10 10 16 18 20 16 11 13 10 6 5 5 5 5 4 4 3 3 3 3 3 3 3 2 2 2 2 1 1 1 1 1 1 2 1 1 1 1
14 12 8 7 7 8 9 12 9 12 11 13 12 10 8 7 6 6 5 5 5 4 4 3 3 3 3 3 3 3 2 2 2 1 1 3 2 2 1 1 1 1 0 1
12 15 8 7 7 7 8 7 14 13 16 16 12 13 13 10 8 6 6 6 5 5 5 4 4 4 3 3 2 3 2 3 2 1 1 2 2 1 1 1 1 1 0 0
11 12 10 8 10 12 10 11 10 11 11 15 16 13 9 9 9 9 8 7 6 5 5 4 4 3 3 2 3 3 2 2 2 1 1 1 1 1 0 1 1 1 0 -0
10 12 14 10 7 7 8 9 10 14 15 12 14 15 7 8 8 8 8 7 6 5 5 4 4 3 3 3 3 2 2 2 1 1 1 1 1 1 1 1 1 -0 0 0
10 14 16 14 10 8 11 9 9 10 11 13 16 17 9 8 8 7 7 7 6 5 5 4 4 4 3 3 3 2 2 2 2 1 1 1 2 2 1 1 0 0 0 1
9 13 14 15 12 10 14 11 8 10 14 13 14 16 13 10 9 8 7 6 6 5 5 4 4 4 3 2 2 2 2 2 2 2 3 2 2 1 1 1 0 1 1 1
10 14 12 11 10 10 10 11 10 10 10 14 14 15 13 10 9 8 7 6 6 6 5 5 4 4 3 3 2 2 3 3 3 3 3 3 2 2 1 1 1 1 1 1
9 14 11 12 11 11 11 10 10 9 9 10 13 14 9 8 7 7 7 6 6 6 5 5 4 3 3 3 4 3 4 4 3 4 4 3 2 2 2 1 1 1 1 1
12 13 13 15 11 12 16 12 10 9 10 11 15 12 9 9 8 8 7 6 6 5 5 5 4 4 4 5 4 5 4 4 4 4 4 4 3 3 3 2 2 2 2 1
12 13 13 15 13 19 11 8 8 10 10 10 11 10 9 8 7 6 5 6 6 5 5 5 6 6 5 5 5 4 5 4 5 5 5 4 4 4 3 3 3 2 2 1
9 12 15 17 16 13 12 11 12 12 13 9 10 9 8 7 7 7 5 5 5 5 6 6 6 6 5 5 4 4 5 5 5 6 5 5 5 4 4 4 3 3 1 1
10 10 14 14 19 20 14 10 8 8 16 9 8 9 9 8 12 10 8 7 7 7 7 7 7 6 5 5 4 5 6 6 6 6 5 4 5 5 5 4 2 2 2 2
14 13 16 15 17 15 11 11 9 16 15 8 7 8 8 9 8 7 7 8 8 8 8 7 7 7 6 5 5 6 6 7 6 5 5 5 5 4 3 3 2 3 2 2
16 16 17 15 17 19 12 9 13 10 8 7 7 7 9 9 8 8 9 9 9 9 9 8 8 8 7 6 7 8 8 6 6 6 7 6 5 4 4 4 3 3 3 3
16 15 17 17 17 14 12 9 7 6 7 8 8 7 7 8 9 9 10 9 9 9 9 8 8 9 8 8 8 9 8 7 7 7 8 7 6 5 5 5 4 5 5 5
15 13 15 15 16 14 13 11 7 6 7 7 8 8 8 9 10 11 11 10 9 9 9 9 9 10 10 9 9 9 9 8 8 8 9 8 7 6 5 6 6 7 8 7
16 15 15 16 14 13 14 12 10 9 7 7 7 8 9 9 10 11 10 10 10 11 10 10 10 9 9 9 10 9 9 9 9 9 10 10 8 8 7 9 10 9 11 11
15 16 16 18 15 15 15 12 11 12 11 9 8 9 9 9 10 10 10 10 11 11 10 10 9 9 9 10 10 10 10 9 9 10 10 10 9 9 9 8 10 11 11 11